TimeCST,TemperatureF,Dew PointF,Humidity,Sea Level PressureIn,VisibilityMPH,Wind Direction,Wind SpeedMPH,Gust SpeedMPH,PrecipitationIn,Events,Conditions,WindDirDegrees,DateUTC
12:55 AM,43.2,26.1,51,30.34,10.0,NNE,8.1,-,N/A,,Clear,30,2013-01-05 06:55:00
1:55 AM,39.4,28.2,64,30.34,10.0,NE,4.6,-,N/A,,Clear,50,2013-01-05 07:55:00
2:55 AM,38.8,27.9,65,30.35,10.0,North,4.6,-,N/A,,Clear,10,2013-01-05 08:55:00
3:55 AM,39.2,27.9,64,30.34,10.0,North,6.9,-,N/A,,Clear,10,2013-01-05 09:55:00
4:55 AM,39.7,26.2,59,30.35,10.0,North,4.6,-,N/A,,Clear,10,2013-01-05 10:55:00
5:55 AM,36.7,28.4,72,30.36,10.0,NNE,5.8,-,N/A,,Clear,20,2013-01-05 11:55:00
6:55 AM,36.7,28.0,71,30.37,10.0,Calm,Calm,-,N/A,,Clear,0,2013-01-05 12:55:00
7:55 AM,39.4,28.8,66,30.38,10.0,NE,6.9,-,N/A,,Partly Cloudy,50,2013-01-05 13:55:00
8:55 AM,45.1,29.3,54,30.38,10.0,ENE,10.4,-,N/A,,Clear,60,2013-01-05 14:55:00
9:55 AM,49.1,29.3,46,30.38,10.0,East,6.9,-,N/A,,Clear,80,2013-01-05 15:55:00
10:55 AM,50.9,30.6,46,30.36,10.0,North,3.5,-,N/A,,Partly Cloudy,360,2013-01-05 16:55:00
11:55 AM,52.0,29.5,42,30.33,10.0,NNE,5.8,-,N/A,,Mostly Cloudy,20,2013-01-05 17:55:00
12:55 PM,52.3,28.4,40,30.30,10.0,NE,3.5,-,N/A,,Scattered Clouds,50,2013-01-05 18:55:00
1:34 PM,51.8,30.2,44,30.30,10.0,Calm,Calm,-,N/A,Rain,Light Rain,0,2013-01-05 19:34:00
1:53 PM,51.8,32.0,47,30.28,10.0,East,4.6,-,N/A,,Partly Cloudy,80,2013-01-05 19:53:00
1:55 PM,51.4,33.1,50,30.27,10.0,East,4.6,-,0.00,,Partly Cloudy,80,2013-01-05 19:55:00
2:55 PM,52.0,32.2,47,30.29,10.0,NNW,3.5,-,N/A,,Partly Cloudy,340,2013-01-05 20:55:00
3:55 PM,51.8,33.4,50,30.31,10.0,North,3.5,-,N/A,,Clear,360,2013-01-05 21:55:00
4:55 PM,50.4,36.0,58,30.31,10.0,Calm,Calm,-,N/A,,Scattered Clouds,0,2013-01-05 22:55:00
5:55 PM,48.9,39.4,70,30.32,10.0,Calm,Calm,-,N/A,,Mostly Cloudy,0,2013-01-05 23:55:00
6:55 PM,49.1,39.6,70,30.33,10.0,Calm,Calm,-,N/A,,Overcast,0,2013-01-06 00:55:00
7:55 PM,48.9,39.6,70,30.33,10.0,Calm,Calm,-,N/A,,Overcast,0,2013-01-06 01:55:00
8:55 PM,48.6,39.7,72,30.31,10.0,NE,4.6,-,N/A,,Overcast,50,2013-01-06 02:55:00
9:55 PM,49.3,37.8,65,30.28,10.0,North,3.5,-,N/A,,Overcast,10,2013-01-06 03:55:00
10:55 PM,47.7,38.1,70,30.27,10.0,Calm,Calm,-,N/A,,Overcast,0,2013-01-06 04:55:00
11:55 PM,47.5,37.6,69,30.24,10.0,NE,4.6,-,N/A,,Overcast,40,2013-01-06 05:55:00